Location: Unspecified
(0.0000°N, 0.0000°E)
Time: 03:00:24
(UTC+00:00)

Envisat - Pass Details

Date: 27 February 2021
Orbit: 764 x 766 km, 98.1° (Epoch: 24 February)

Event Time Altitude Azimuth Distance (km) Brightness Sun altitude
Rises 04:21:06 0° 41° (NE) 3,216 6.6 -27.6°
Reaches altitude 10° 04:24:04 10° 59° (ENE) 2,294 6.1 -26.9°
Maximum altitude 04:27:30 19° 103° (ESE) 1,782 5.7 -26.0°
Drops below altitude 10° 04:30:56 10° 146° (SE) 2,301 6.0 -25.2°
Sets 04:33:53 0° 163° (SSE) 3,230 6.6 -24.4°
